Погода в Белоомуте

Россия / Московская область     54°56′38″N   39°20′22″E
темп.,
°C
ветер,
м/с
пор.,
м/с
влажн.,
%
обл.,
%
осадки,
мм/ч
давл.,
гПа
погр.,
м
30 июня, чт
чт3000:00+12ссв226968 0.0 102016
03:00+10ссз227668 0.0 102017
06:00+13ссз237763 0.0 1019113
09:00+19ссз34554 0.0 1018686
12:00+23сз454331 0.0 10172088
15:00+24ссз46365 0.0 10152656
18:00+23ссз474863 0.0 1014931
21:00+16с356845 0.0 101580
1 июля, пт
пт100:00+13с310720 0.0 1016185
03:00+11с310790 0.0 1017190
06:00+12св411720 0.0 1019430
09:00+16ссв610430 0.0 10201532
12:00+19ссв69362 0.0 10201969
15:00+20ссв69331 0.0 10192177
18:00+19ссв47432 0.0 10201285
21:00+13с37605 0.0 1021109
2 июля, сб
сб200:00+11с35665 0.0 102284
03:00+10ссз35780 0.0 102177
06:00+12ссз37735 0.0 1022184
09:00+19ссз4751100 0.0 1021735
12:00+23с463840 0.0 10201806
15:00+25ссз36365 0.0 10182172
18:00+25сз36505 0.0 1017697
21:00+18ссз226515 0.0 101611
3 июля, вс
вс300:00+16ссз227955 0.1 101627
03:00+16сз36835 0.1 1015111
06:00+17сз25880 0.0 1015154
09:00+23с356679 0.0 1015672
12:00+27с45440 0.0 10142023
15:00+28с45370 0.0 10142490
18:00+26ссв46480 0.0 1014598
21:00+20ссв35660 0.0 101572
4 июля, пн
пн400:00+17юв22800 0.0 101727
03:00+15юв11870 0.0 101711
06:00+17в12800 0.0 101876
09:00+23юв22585 0.0 1018695
12:00+25ю22465 0.0 10181710
15:00+26юз33463 0.0 10171714
18:00+25юз34560 0.0 1017882
21:00+20юз36750 0.0 101893